SQ5TM-1 Weather Reports


time (UTC)temp
C
wind
direction
speed
KPH
gust
KPH
rain 1hr
cm
rain 24hr
cm
rain mn
cm
humidity
%
barometer
mb
20260905223046 14 0 0.0 0.0 0.00 0.00 0.00 78 1003.0
20260905221522 14 0 0.0 0.0 0.00 0.00 0.00 77 1003.0
20260905221220 14 0 0.0 0.0 0.00 0.00 0.00 76 1003.0
20260905215656 14 0 0.0 0.0 0.00 0.00 0.00 76 1003.0
20260905214131 15 0 0.0 0.0 0.00 0.00 0.00 76 1003.0
20260905212504 15 0 0.0 0.0 0.00 0.00 0.00 75 1003.0
20260905210940 15 0 0.0 0.0 0.00 0.00 0.00 73 1003.0
20260905205415 15 0 0.0 0.0 0.00 0.00 0.00 70 1003.0
20260905203851 16 0 0.0 0.0 0.00 0.00 0.00 69 1002.0
20260905202717 16 0 0.0 0.0 0.00 0.00 0.00 69 1002.0
20260905201153 16 0 0.0 0.0 0.00 0.00 0.00 68 1002.0
20260905195628 16 0 0.0 0.0 0.00 0.00 0.00 67 1002.0
20260905194103 16 0 0.0 0.0 0.00 0.00 0.00 69 1002.0
20260905192539 16 0 0.0 0.0 0.00 0.00 0.00 69 1002.0
20260905191015 16 0 0.0 0.0 0.00 0.00 0.00 68 1002.0
20260905185451 16 0 0.0 0.0 0.00 0.00 0.00 70 1002.0
20260905183926 16 0 0.0 0.0 0.00 0.00 0.00 70 1002.0
20260905182402 16 0 0.0 0.0 0.00 0.00 0.00 67 1002.0
20260905180838 16 0 0.0 0.0 0.00 0.00 0.00 65 1002.0
20260905175313 17 0 0.0 0.0 0.00 0.00 0.00 63 1002.0
20260905173749 17 0 0.0 0.0 0.00 0.00 0.00 64 1002.0
20260905172225 17 0 0.0 0.0 0.00 0.00 0.00 63 1002.0
20260905170700 17 0 0.0 0.0 0.00 0.00 0.00 61 1002.0
20260905165136 17 0 0.0 0.0 0.00 0.00 0.00 59 1002.0
20260905163611 17 0 0.0 0.0 0.00 0.00 0.00 59 1002.0
20260905163506 17 0 0.0 0.0 0.00 0.00 0.00 59 1002.0
20260905161941 17 0 0.0 0.0 0.00 0.00 0.00 58 1002.0
20260905160417 17 0 0.0 0.0 0.00 0.00 0.00 56 1001.0
20260905154853 18 0 0.0 0.0 0.00 0.00 0.00 54 1001.0
20260905153329 18 0 0.0 0.0 0.00 0.00 0.00 54 1002.0
20260905151805 18 0 0.0 0.0 0.00 0.00 0.00 53 1002.0
20260905150240 19 0 0.0 0.0 0.00 0.00 0.00 52 1001.0
20260905144716 20 0 0.0 0.0 0.00 0.00 0.00 49 1001.0
20260905143152 20 0 0.0 0.0 0.00 0.00 0.00 48 1001.0
20260905141626 22 0 0.0 0.0 0.00 0.00 0.00 45 1001.0
20260905134538 25 0 0.0 0.0 0.00 0.00 0.00 41 1001.0
20260905133014 21 0 0.0 0.0 0.00 0.00 0.00 47 1001.0
20260905131449 22 0 0.0 0.0 0.00 0.00 0.00 45 1001.0
20260905125925 23 0 0.0 0.0 0.00 0.00 0.00 44 1001.0
20260905124401 26 0 0.0 0.0 0.00 0.00 0.00 38 1001.0
20260905122836 23 0 0.0 0.0 0.00 0.00 0.00 40 1001.0
20260905121312 24 0 0.0 0.0 0.00 0.00 0.00 40 1001.0
20260905115747 22 0 0.0 0.0 0.00 0.00 0.00 43 1001.0
20260905114223 22 0 0.0 0.0 0.00 0.00 0.00 43 1001.0
20260905112658 23 0 0.0 0.0 0.00 0.00 0.00 42 1001.0
20260905111134 22 0 0.0 0.0 0.00 0.00 0.00 44 1000.0
20260905105610 21 0 0.0 0.0 0.00 0.00 0.00 49 1001.0
20260905104046 21 0 0.0 0.0 0.00 0.00 0.00 50 1000.0
20260905102521 20 0 0.0 0.0 0.00 0.00 0.00 53 1000.0
20260905100957 18 0 0.0 0.0 0.00 0.00 0.00 58 1000.0
20260905095433 20 0 0.0 0.0 0.00 0.00 0.00 52 1000.0
20260905093908 20 0 0.0 0.0 0.00 0.00 0.00 53 1000.0
20260905092344 19 0 0.0 0.0 0.00 0.00 0.00 53 1000.0
20260905090820 18 0 0.0 0.0 0.00 0.00 0.00 59 1000.0
20260905085255 19 0 0.0 0.0 0.00 0.00 0.00 57 1000.0
20260905083731 18 0 0.0 0.0 0.00 0.00 0.00 59 1000.0
20260905082207 18 0 0.0 0.0 0.00 0.00 0.00 63 999.0
20260905080642 18 0 0.0 0.0 0.00 0.00 0.00 64 999.0
20260905075118 17 0 0.0 0.0 0.00 0.00 0.00 66 999.0
20260905073554 17 0 0.0 0.0 0.00 0.00 0.00 66 999.0
20260905072029 17 0 0.0 0.0 0.00 0.00 0.00 67 999.0
20260905070505 17 0 0.0 0.0 0.00 0.00 0.00 68 999.0
20260905064941 17 0 0.0 0.0 0.00 0.00 0.00 67 999.0
20260905063417 17 0 0.0 0.0 0.00 0.00 0.00 68 999.0
20260905061853 17 0 0.0 0.0 0.00 0.00 0.00 68 998.0
20260905060328 16 0 0.0 0.0 0.00 0.00 0.00 71 998.0
20260905054804 16 0 0.0 0.0 0.00 0.00 0.00 70 998.0
20260905053239 16 0 0.0 0.0 0.00 0.00 0.00 70 998.0
20260905051715 16 0 0.0 0.0 0.00 0.00 0.00 70 998.0
20260905050151 16 0 0.0 0.0 0.00 0.00 0.00 70 998.0
20260905044627 16 0 0.0 0.0 0.00 0.00 0.00 71 997.0
20260905043102 16 0 0.0 0.0 0.00 0.00 0.00 70 997.0
20260905041538 17 0 0.0 0.0 0.00 0.00 0.00 71 997.0
20260905040013 17 0 0.0 0.0 0.00 0.00 0.00 71 997.0
20260905034448 17 0 0.0 0.0 0.00 0.00 0.00 73 996.0
20260905032924 17 0 0.0 0.0 0.00 0.00 0.00 77 996.0
20260905031359 17 0 0.0 0.0 0.00 0.00 0.00 79 995.0
20260905025835 17 0 0.0 0.0 0.00 0.00 0.00 78 995.0
20260905024310 17 0 0.0 0.0 0.00 0.00 0.00 79 995.0
20260905022746 17 0 0.0 0.0 0.00 0.00 0.00 79 995.0
20260905021222 17 0 0.0 0.0 0.00 0.00 0.00 80 995.0
20260905015658 17 0 0.0 0.0 0.00 0.00 0.00 79 995.0
20260905014133 18 0 0.0 0.0 0.00 0.00 0.00 77 995.0
20260905012609 18 0 0.0 0.0 0.00 0.00 0.00 78 995.0
20260905011045 18 0 0.0 0.0 0.00 0.00 0.00 79 995.0
20260905005521 18 0 0.0 0.0 0.00 0.00 0.00 79 994.0
20260905003956 18 0 0.0 0.0 0.00 0.00 0.00 82 994.0
20260905002432 18 0 0.0 0.0 0.00 0.00 0.00 84 994.0
20260905000908 18 0 0.0 0.0 0.00 0.00 0.00 85 994.0
20260904235344 18 0 0.0 0.0 0.00 0.00 0.00 86 994.0
20260904233819 18 0 0.0 0.0 0.00 0.00 0.00 87 994.0
20260904232254 18 0 0.0 0.0 0.00 0.00 0.00 89 994.0
20260904230731 18 0 0.0 0.0 0.00 0.00 0.00 89 994.0
20260904225206 18 0 0.0 0.0 0.00 0.00 0.00 90 994.0